GW7667 Weather Reports


time (UTC)temp
F
wind
direction
speed
knots
gust
knots
rain 1hr
in
rain 24hr
in
rain mn
in
humidity
%
barometer
mb
20260906191448 76 278 2.6 3.5 0.00 0.00 0.00 49 1020.3
20260906190948 76 355 0.0 3.5 0.00 0.00 0.00 51 1020.4
20260906190446 77 313 2.6 3.5 0.00 0.00 0.00 47 1020.1
20260906185942 77 289 1.7 1.7 0.00 0.00 0.00 47 1020.3
20260906185441 77 234 1.7 1.7 0.00 0.00 0.00 46 1020.3
20260906184940 77 244 0.9 0.9 0.00 0.00 0.00 49 1020.4
20260906184436 77 214 0.0 1.7 0.00 0.00 0.00 50 1020.5
20260906183931 77 213 0.9 1.7 0.00 0.00 0.00 50 1020.6
20260906183427 77 132 0.0 1.7 0.00 0.00 0.00 50 1020.7
20260906182922 76 227 0.0 2.6 0.00 0.00 0.00 52 1020.5
20260906182417 75 299 0.0 4.3 0.00 0.00 0.00 55 1020.6
20260906181913 76 289 1.7 1.7 0.00 0.00 0.00 52 1020.6
20260906181409 75 311 1.7 3.5 0.00 0.00 0.00 51 1020.7
20260906180904 75 355 0.9 3.5 0.00 0.00 0.00 52 1020.6
20260906180359 76 288 1.7 4.3 0.00 0.00 0.00 51 1020.7
20260906175856 76 217 0.0 1.7 0.00 0.00 0.00 52 1020.6
20260906175352 76 312 0.0 3.5 0.00 0.00 0.00 52 1020.7
20260906174851 75 28 0.0 1.7 0.00 0.00 0.00 55 1020.7
20260906174350 75 323 0.0 1.7 0.00 0.00 0.00 57 1020.7
20260906173845 75 314 0.0 0.9 0.00 0.00 0.00 59 1020.6
20260906173341 75 5 0.0 1.7 0.00 0.00 0.00 58 1020.6
20260906172840 75 269 0.0 0.9 0.00 0.00 0.00 60 1021.0
20260906172336 75 149 0.0 3.5 0.00 0.00 0.00 57 1020.9
20260906171831 75 326 1.7 1.7 0.00 0.00 0.00 60 1021.0
20260906171326 75 333 0.0 2.6 0.00 0.00 0.00 58 1020.7
20260906170822 76 228 0.0 1.7 0.00 0.00 0.00 57 1020.7
20260906170318 75 294 0.9 2.6 0.00 0.00 0.00 56 1020.6
20260906165814 75 322 0.9 1.7 0.00 0.00 0.00 57 1020.7
20260906165313 75 318 0.9 1.7 0.00 0.00 0.00 59 1020.9
20260906164814 74 239 0.0 1.7 0.00 0.00 0.00 60 1020.9
20260906164308 74 117 0.0 1.7 0.00 0.00 0.00 60 1020.7
20260906163804 74 269 0.0 1.7 0.00 0.00 0.00 58 1020.9
20260906163300 74 292 3.5 3.5 0.00 0.00 0.00 55 1021.0
20260906162757 73 103 0.0 2.6 0.00 0.00 0.00 59 1020.9
20260906162256 73 320 2.6 3.5 0.00 0.00 0.00 55 1021.0
20260906161756 73 324 2.6 2.6 0.00 0.00 0.00 56 1021.1
20260906161255 73 32 0.0 2.6 0.00 0.00 0.00 56 1020.9
20260906160754 72 89 0.0 2.6 0.00 0.00 0.00 60 1021.1
20260906160249 72 310 0.0 0.9 0.00 0.00 0.00 66 1020.9
20260906155747 71 3 0.9 3.5 0.00 0.00 0.00 65 1021.0
20260906155242 70 29 0.0 0.9 0.00 0.00 0.00 66 1021.0
20260906154737 70 77 0.0 0.9 0.00 0.00 0.00 69 1021.1
20260906154232 70 306 0.9 0.9 0.00 0.00 0.00 69 1021.0
20260906153730 69 327 1.7 1.7 0.00 0.00 0.00 68 1020.9
20260906153220 69 315 0.0 1.7 0.00 0.00 0.00 70 1020.9
20260906152715 69 89 0.0 0.9 0.00 0.00 0.00 70 1020.7
20260906152215 69 339 0.0 0.0 0.00 0.00 0.00 71 1021.1
20260906151709 69 315 0.0 0.9 0.00 0.00 0.00 71 1021.3
20260906151205 69 301 1.7 2.6 0.00 0.00 0.00 71 1021.3
20260906150700 68 37 0.0 0.9 0.00 0.00 0.00 71 1021.2
20260906150155 68 32 0.0 0.0 0.00 0.00 0.00 71 1021.2
20260906145654 68 55 0.0 0.0 0.00 0.00 0.00 71 1021.2
20260906145154 68 55 0.0 0.0 0.00 0.00 0.00 71 1021.3
20260906144654 68 86 0.0 0.0 0.00 0.00 0.00 71 1021.2
20260906144149 68 292 0.0 0.0 0.00 0.00 0.00 71 1021.2
20260906143649 68 293 0.0 0.9 0.00 0.00 0.00 72 1021.2
20260906143146 68 0 0.0 0.9 0.00 0.00 0.00 72 1021.2
20260906142645 67 59 0.9 0.9 0.00 0.00 0.00 67 1021.3
20260906142141 66 357 0.0 1.7 0.00 0.00 0.00 68 1021.3
20260906141639 66 37 0.0 0.0 0.00 0.00 0.00 72 1021.2
20260906141135 66 38 0.0 0.9 0.00 0.00 0.00 71 1021.1
20260906140634 66 243 0.0 0.0 0.00 0.00 0.00 72 1021.2
20260906140129 65 230 0.0 0.0 0.00 0.00 0.00 74 1021.0
20260906135626 65 89 0.0 0.0 0.00 0.00 0.00 72 1021.0
20260906135122 64 103 0.9 0.9 0.00 0.00 0.00 75 1021.0
20260906134617 64 76 0.0 0.0 0.00 0.00 0.00 76 1021.1
20260906134112 64 173 0.0 0.0 0.00 0.00 0.00 77 1021.0
20260906133608 63 353 0.0 1.7 0.00 0.00 0.00 77 1021.1
20260906133103 63 224 0.0 0.0 0.00 0.00 0.00 78 1020.9
20260906132558 62 224 0.0 0.0 0.00 0.00 0.00 78 1021.2
20260906132054 62 66 0.9 0.9 0.00 0.00 0.00 78 1021.2
20260906131549 62 37 0.0 0.0 0.00 0.00 0.00 79 1021.1
20260906131044 61 212 0.0 0.0 0.00 0.00 0.00 79 1021.0
20260906130544 61 212 0.0 0.0 0.00 0.00 0.00 79 1021.0
20260906130039 60 37 0.0 0.0 0.00 0.00 0.00 80 1021.2
20260906125537 60 37 0.0 0.0 0.00 0.00 0.00 80 1021.2
20260906125036 60 230 0.0 0.0 0.00 0.00 0.00 79 1021.0
20260906124532 60 129 0.0 0.0 0.00 0.00 0.00 79 1021.1
20260906124027 59 89 0.0 0.0 0.00 0.00 0.00 79 1021.0
20260906123526 59 229 0.0 0.0 0.00 0.00 0.00 81 1021.0
20260906123021 59 260 0.0 0.9 0.00 0.00 0.00 82 1021.0
20260906122521 58 243 0.0 0.0 0.00 0.00 0.00 82 1020.9
20260906122017 58 257 0.0 0.9 0.00 0.00 0.00 84 1021.0
20260906121513 58 240 0.0 0.9 0.00 0.00 0.00 84 1021.1
20260906121010 57 224 0.0 0.9 0.00 0.00 0.00 84 1021.0
20260906120509 57 224 0.0 0.9 0.00 0.00 0.00 84 1021.0
20260906120008 57 230 0.0 0.0 0.00 0.00 0.00 86 1020.9
20260906115502 56 209 0.0 0.0 0.00 0.00 0.00 86 1021.0
20260906115002 56 209 0.0 0.0 0.00 0.00 0.00 87 1020.7
20260906114456 56 209 0.0 0.0 0.00 0.00 0.00 86 1020.7
20260906113953 56 229 0.0 0.0 0.00 0.00 0.00 85 1020.5
20260906113451 56 230 0.0 0.0 0.00 0.00 0.00 85 1020.5
20260906112946 56 205 0.0 0.0 0.00 0.00 0.00 86 1020.6
20260906112441 56 212 0.0 0.0 0.00 0.00 0.00 86 1020.5
20260906111937 56 246 0.0 0.0 0.00 0.00 0.00 86 1020.4
20260906111436 56 243 0.0 0.0 0.00 0.00 0.00 86 1020.3
20260906110931 56 209 0.0 0.0 0.00 0.00 0.00 85 1020.4
20260906110427 56 229 0.0 0.0 0.00 0.00 0.00 87 1020.0
20260906105926 56 224 0.0 0.0 0.00 0.00 0.00 87 1020.4
20260906105422 56 224 0.0 0.0 0.00 0.00 0.00 89 1020.3
20260906104918 56 230 0.0 0.0 0.00 0.00 0.00 88 1020.2
20260906104416 56 230 0.0 0.0 0.00 0.00 0.00 89 1020.1
20260906103915 56 230 0.0 0.0 0.00 0.00 0.00 88 1020.1
20260906103414 56 230 0.0 0.0 0.00 0.00 0.00 89 1020.2
20260906102910 56 246 0.0 0.0 0.00 0.00 0.00 88 1020.0
20260906102409 56 246 0.0 0.0 0.00 0.00 0.00 88 1020.2
20260906101904 56 267 0.0 0.0 0.00 0.00 0.00 88 1020.4
20260906101359 56 315 0.0 0.0 0.00 0.00 0.00 89 1020.3
20260906100854 56 248 0.0 0.0 0.00 0.00 0.00 90 1020.1
20260906100353 56 235 0.0 0.0 0.00 0.00 0.00 90 1020.1
20260906095848 56 240 0.0 0.0 0.00 0.00 0.00 89 1020.2
20260906095344 56 246 0.0 0.0 0.00 0.00 0.00 87 1020.0
20260906094843 56 240 0.0 0.0 0.00 0.00 0.00 88 1020.2
20260906094339 56 230 0.0 0.0 0.00 0.00 0.00 88 1020.2
20260906093835 56 230 0.0 0.0 0.00 0.00 0.00 89 1020.3
20260906093331 56 230 0.0 0.0 0.00 0.00 0.00 88 1020.3
20260906092826 56 230 0.0 0.0 0.00 0.00 0.00 89 1020.2
20260906092325 56 252 0.0 0.0 0.00 0.00 0.00 90 1020.2
20260906091821 56 252 0.0 0.0 0.00 0.00 0.00 90 1020.3
20260906091317 56 252 0.0 0.0 0.00 0.00 0.00 89 1020.2
20260906090813 56 252 0.0 0.0 0.00 0.00 0.00 90 1020.1
20260906090312 56 252 0.0 0.0 0.00 0.00 0.00 90 1020.2
20260906085807 56 235 0.0 0.0 0.00 0.00 0.00 90 1020.2
20260906085307 56 235 0.0 0.0 0.00 0.00 0.00 89 1020.3
20260906084801 56 235 0.0 0.0 0.00 0.00 0.00 89 1020.1
20260906084300 56 235 0.0 0.0 0.00 0.00 0.00 89 1020.3
20260906083755 56 224 0.0 0.0 0.00 0.00 0.00 88 1020.0
20260906083250 56 224 0.0 0.0 0.00 0.00 0.00 90 1020.0
20260906082745 56 224 0.0 0.0 0.00 0.00 0.00 89 1020.0
20260906082240 56 212 0.0 0.0 0.00 0.00 0.00 89 1020.0
20260906081736 56 202 0.0 0.0 0.00 0.00 0.00 87 1019.9
20260906081231 56 224 0.0 0.0 0.00 0.00 0.00 89 1019.8
20260906080728 56 224 0.0 0.0 0.00 0.00 0.00 89 1019.8
20260906080224 56 212 0.0 0.0 0.00 0.00 0.00 88 1019.8
20260906075724 56 202 0.0 0.0 0.00 0.00 0.00 89 1019.9
20260906075224 56 228 0.0 0.0 0.00 0.00 0.00 89 1020.0
20260906074719 56 173 0.0 0.0 0.00 0.00 0.00 89 1020.1
20260906074218 56 218 0.0 0.0 0.00 0.00 0.00 89 1020.1
20260906073713 56 202 0.0 0.0 0.00 0.00 0.00 89 1020.1
20260906073208 56 230 0.0 0.0 0.00 0.00 0.00 90 1019.8
20260906072704 56 230 0.0 0.0 0.00 0.00 0.00 90 1019.9
20260906072159 56 157 0.0 0.0 0.00 0.00 0.00 90 1019.9
20260906071655 56 209 0.0 0.9 0.00 0.00 0.00 90 1019.9
20260906071154 56 204 0.0 0.0 0.00 0.00 0.00 90 1020.1
20260906070652 56 141 0.0 0.0 0.00 0.00 0.00 90 1019.8
20260906070147 56 141 0.0 0.0 0.00 0.00 0.00 90 1019.9
20260906065646 57 141 0.0 0.0 0.00 0.00 0.00 90 1019.9
20260906065142 57 141 0.0 0.0 0.00 0.00 0.00 90 1019.7
20260906064637 57 224 0.0 0.0 0.00 0.00 0.00 89 1019.8
20260906064133 57 217 0.0 0.0 0.00 0.00 0.00 89 1019.7
20260906063628 57 246 0.0 0.0 0.00 0.00 0.00 89 1019.7
20260906063124 57 215 0.0 0.9 0.00 0.00 0.00 89 1019.7
20260906062619 57 202 0.0 0.9 0.00 0.00 0.00 89 1019.7
20260906062118 57 197 0.0 0.9 0.00 0.00 0.00 90 1019.7
20260906061614 57 218 0.0 0.9 0.00 0.00 0.00 90 1019.7
20260906061114 57 230 0.0 0.0 0.00 0.00 0.00 89 1019.5
20260906060611 57 230 0.0 0.9 0.00 0.00 0.00 89 1019.7
20260906060108 57 212 0.0 0.0 0.00 0.00 0.00 90 1019.4
20260906055603 57 225 0.0 0.9 0.00 0.00 0.00 90 1019.4
20260906055058 57 225 0.0 0.0 0.00 0.00 0.00 91 1019.5
20260906054558 57 217 0.0 0.0 0.00 0.00 0.00 91 1019.4
20260906054053 57 230 0.0 0.0 0.00 0.00 0.00 91 1019.2
20260906053550 57 217 0.0 0.0 0.00 0.00 0.00 92 1019.4
20260906053045 57 217 0.0 0.0 0.00 0.00 0.00 92 1019.2
20260906052540 57 217 0.0 0.0 0.00 0.00 0.00 93 1019.4
20260906052038 57 217 0.0 0.0 0.00 0.00 0.00 93 1019.2
20260906051533 57 217 0.0 0.0 0.00 0.00 0.00 93 1019.2
20260906051028 57 224 0.0 0.0 0.00 0.00 0.00 93 1019.2
20260906050523 57 309 0.0 0.0 0.00 0.00 0.00 93 1019.0
20260906050018 57 293 0.0 0.0 0.00 0.00 0.00 93 1019.3
20260906045516 57 230 0.0 0.0 0.00 0.00 0.00 93 1019.2
20260906045012 57 230 0.0 0.0 0.00 0.00 0.00 93 1019.0
20260906044508 57 230 0.0 0.0 0.00 0.00 0.00 93 1019.2
20260906044003 57 217 0.0 0.0 0.00 0.00 0.00 93 1019.4
20260906043458 57 249 0.0 0.9 0.00 0.00 0.00 92 1019.2
20260906042954 57 230 0.0 0.0 0.00 0.00 0.00 92 1019.3
20260906042453 58 217 0.0 0.0 0.00 0.00 0.00 92 1019.2
20260906041953 58 230 0.0 0.9 0.00 0.00 0.00 92 1019.1
20260906041450 58 211 0.9 1.7 0.00 0.00 0.00 92 1019.1
20260906040949 58 219 0.9 1.7 0.00 0.00 0.00 92 1018.9
20260906040444 58 215 0.9 1.7 0.00 0.00 0.00 92 1019.0
20260906035939 58 225 0.9 0.9 0.00 0.00 0.00 92 1018.8
20260906035435 58 190 0.9 0.9 0.00 0.00 0.00 91 1018.7
20260906034930 58 229 0.0 0.9 0.00 0.00 0.00 92 1018.8
20260906034425 58 193 0.0 0.0 0.00 0.00 0.00 93 1018.8
20260906033920 58 217 0.0 0.0 0.00 0.00 0.00 93 1018.8
20260906033421 58 186 0.0 0.0 0.00 0.00 0.00 93 1018.8
20260906032916 58 230 0.0 0.0 0.00 0.00 0.00 93 1018.8
20260906032413 58 142 0.0 0.0 0.00 0.00 0.00 93 1018.9
20260906031913 59 129 0.0 0.0 0.00 0.00 0.00 93 1018.8
20260906031409 59 129 0.0 0.0 0.00 0.00 0.00 93 1018.9
20260906030909 59 113 0.0 0.0 0.00 0.00 0.00 93 1018.8
20260906030404 59 147 0.0 0.0 0.00 0.00 0.00 94 1018.8
20260906025858 59 142 0.0 0.0 0.00 0.00 0.00 94 1018.6
20260906025353 59 142 0.0 0.0 0.00 0.00 0.00 94 1018.8
20260906024851 59 166 0.0 0.0 0.00 0.00 0.00 95 1018.7
20260906024351 59 230 0.0 0.0 0.00 0.00 0.00 95 1018.5
20260906023846 60 230 0.0 0.0 0.00 0.00 0.00 95 1018.5
20260906023342 60 230 0.0 0.0 0.00 0.00 0.00 95 1018.5
20260906022837 60 322 0.0 0.0 0.00 0.00 0.00 95 1018.8
20260906022337 60 322 0.0 0.0 0.00 0.00 0.00 95 1018.6
20260906021833 60 322 0.0 0.0 0.00 0.00 0.00 95 1018.5
20260906021333 60 322 0.0 0.0 0.00 0.00 0.00 95 1018.7
20260906020828 60 322 0.0 0.0 0.00 0.00 0.00 95 1018.6
20260906020327 60 322 0.0 0.0 0.00 0.00 0.00 95 1018.8
20260906015822 60 322 0.0 0.0 0.00 0.00 0.00 95 1018.6
20260906015321 60 322 0.0 0.0 0.00 0.00 0.00 95 1018.7
20260906014820 61 230 0.0 0.0 0.00 0.00 0.00 95 1018.7
20260906014316 61 230 0.0 0.0 0.00 0.00 0.00 95 1018.8
20260906013812 61 230 0.0 0.0 0.00 0.00 0.00 95 1018.8
20260906013307 61 230 0.0 0.0 0.00 0.00 0.00 94 1018.7
20260906012802 61 217 0.0 0.0 0.00 0.00 0.00 94 1018.7
20260906012257 61 217 0.0 0.0 0.00 0.00 0.00 94 1018.7
20260906011752 62 217 0.0 0.0 0.00 0.00 0.00 94 1018.6
20260906011252 62 142 0.0 0.0 0.00 0.00 0.00 94 1018.8
20260906010748 62 142 0.0 0.0 0.00 0.00 0.00 93 1018.6
20260906010244 62 142 0.0 0.0 0.00 0.00 0.00 93 1018.6
20260906005739 62 217 0.0 0.0 0.00 0.00 0.00 93 1018.7
20260906005238 62 212 0.0 0.0 0.00 0.00 0.00 93 1018.6
20260906004737 63 212 0.0 0.0 0.00 0.00 0.00 93 1018.6
20260906004233 63 212 0.0 0.0 0.00 0.00 0.00 92 1018.7
20260906003733 63 212 0.0 0.0 0.00 0.00 0.00 92 1018.7
20260906003229 63 212 0.0 0.0 0.00 0.00 0.00 91 1018.7
20260906002728 64 218 0.0 0.0 0.00 0.00 0.00 90 1018.6
20260906002229 64 218 0.0 0.0 0.00 0.00 0.00 89 1018.5
20260906001724 64 309 0.0 0.0 0.00 0.00 0.00 89 1018.8
20260906001219 64 309 0.0 0.0 0.00 0.00 0.00 88 1018.6
20260906000714 65 299 0.0 0.0 0.00 0.00 0.00 87 1018.6
20260906000212 65 217 0.0 0.0 0.00 0.00 0.00 86 1018.4
20260905235709 66 13 0.0 0.0 0.00 0.00 0.00 85 1018.3
20260905235204 66 135 0.0 0.0 0.00 0.00 0.00 84 1018.6
20260905234659 66 333 0.0 1.7 0.00 0.00 0.00 83 1018.4
20260905234154 67 322 0.0 1.7 0.00 0.00 0.00 81 1018.5
20260905233649 67 321 2.6 2.6 0.00 0.00 0.00 79 1018.7
20260905233149 67 37 0.0 1.7 0.00 0.00 0.00 78 1018.6
20260905232644 67 345 1.7 3.5 0.00 0.00 0.00 77 1018.7
20260905232140 68 340 1.7 2.6 0.00 0.00 0.00 76 1018.8
20260905231635 68 339 1.7 1.7 0.00 0.00 0.00 74 1018.6
20260905231131 68 279 0.0 1.7 0.00 0.00 0.00 74 1018.7
20260905230627 68 306 1.7 2.6 0.00 0.00 0.00 73 1018.6
20260905230125 68 344 0.0 3.5 0.00 0.00 0.00 73 1018.9
20260905225624 68 298 3.5 3.5 0.00 0.00 0.00 73 1018.8
20260905225120 68 339 2.6 2.6 0.00 0.00 0.00 72 1018.6
20260905224619 69 319 1.7 4.3 0.00 0.00 0.00 69 1018.6
20260905224119 69 292 1.7 2.6 0.00 0.00 0.00 73 1018.8
20260905223616 69 267 0.0 2.6 0.00 0.00 0.00 73 1018.5
20260905223112 70 246 0.0 0.9 0.00 0.00 0.00 70 1018.4
20260905222612 70 301 1.7 2.6 0.00 0.00 0.00 68 1018.6
20260905222108 70 325 0.9 3.5 0.00 0.00 0.00 69 1018.8
20260905221603 71 307 0.9 1.7 0.00 0.00 0.00 69 1018.5
20260905221100 70 324 2.6 2.6 0.00 0.00 0.00 68 1018.4
20260905220555 71 295 1.7 3.5 0.00 0.00 0.00 68 1018.3
20260905220051 71 10 1.7 4.3 0.00 0.00 0.00 66 1018.6
20260905215550 71 349 1.7 2.6 0.00 0.00 0.00 69 1018.3
20260905215046 71 311 1.7 2.6 0.00 0.00 0.00 66 1018.4
20260905214543 71 313 0.9 1.7 0.00 0.00 0.00 69 1018.5
20260905214043 71 309 1.7 3.5 0.00 0.00 0.00 67 1018.5
20260905213538 71 334 2.6 2.6 0.00 0.00 0.00 68 1018.4
20260905213033 71 334 2.6 3.5 0.00 0.00 0.00 67 1018.5
20260905212528 72 321 2.6 3.5 0.00 0.00 0.00 66 1018.3
20260905212027 72 314 2.6 4.3 0.00 0.00 0.00 65 1018.3
20260905211523 73 299 2.6 5.2 0.00 0.00 0.00 65 1018.3
20260905211019 73 292 1.7 2.6 0.00 0.00 0.00 64 1018.2
20260905210514 73 323 0.9 4.3 0.00 0.00 0.00 65 1018.1
20260905210015 73 230 0.0 3.5 0.00 0.00 0.00 63 1018.3
20260905205514 73 191 0.9 4.3 0.00 0.00 0.00 62 1018.2
20260905205013 73 303 2.6 3.5 0.00 0.00 0.00 65 1018.0
20260905204508 74 333 5.2 5.2 0.00 0.00 0.00 63 1018.1
20260905204009 73 50 0.0 5.2 0.00 0.00 0.00 67 1018.0
20260905203503 74 298 1.7 6.1 0.00 0.00 0.00 63 1018.2
20260905202959 73 321 1.7 2.6 0.00 0.00 0.00 65 1018.3
20260905202454 73 340 2.6 7.0 0.00 0.00 0.00 64 1018.4
20260905201949 73 349 3.5 3.5 0.00 0.00 0.00 64 1018.4
20260905201444 74 320 3.5 4.3 0.00 0.00 0.00 63 1018.4
20260905200944 74 335 0.9 4.3 0.00 0.00 0.00 65 1018.6
20260905200440 74 347 1.7 7.0 0.00 0.00 0.00 64 1018.4
20260905195938 76 348 2.6 3.5 0.00 0.00 0.00 61 1018.4
20260905195433 75 348 2.6 4.3 0.00 0.00 0.00 62 1018.2
20260905194929 75 301 2.6 3.5 0.00 0.00 0.00 60 1018.3
20260905194428 75 308 1.7 3.5 0.00 0.00 0.00 62 1018.4
20260905193929 74 180 0.0 2.6 0.00 0.00 0.00 64 1018.3
20260905193424 74 326 1.7 5.2 0.00 0.00 0.00 64 1018.5
20260905192919 74 314 2.6 4.3 0.00 0.00 0.00 64 1018.6
20260905192414 74 309 2.6 3.5 0.00 0.00 0.00 63 1018.6
20260905191914 74 333 4.3 5.2 0.00 0.00 0.00 62 1018.6